Terminal Aerodrome Forecast
Issued by NWS Salt Lake City, UT

Home | Current Version | Previous Version | Text Only | Print | Product List | Glossary On
Versions: 1 2 3 4 5 6 7 8 9 10 11 12 13 14 15 16 17 18 19 20 21 22 23 24 25 26 27 28 29 30 31 32 33 34 35 36 37 38 39 40 41 42 43 44 45 46 47 48 49 50
365
FTUS45 KSLC 212047 AAB
TAFSLC
TAF AMD
KSLC 212047Z 2121/2224 33008KT P6SM VCSH SCT030 BKN050
     FM220300 16009KT P6SM SCT010 BKN040
     FM220900 15010KT P6SM SCT020 BKN060
     FM221900 18014KT 2SM -SN BKN030=

USA.gov is the U.S. government's official web portal to all federal, state and local government web resources and services.